EW6612 Weather Reports


time (UTC)temp
C
wind
direction
speed
KPH
gust
KPH
rain 1hr
cm
rain 24hr
cm
rain mn
cm
humidity
%
barometer
mb
20180219041228 4 318 0.0 0.0 0.00 0.03 0.00 94 1021.4
20180219040220 4 318 0.0 0.0 0.00 0.03 0.00 94 1021.3
20180219035212 4 318 0.0 3.2 0.00 0.03 0.00 94 1021.4
20180219034155 4 318 0.0 4.8 0.00 0.03 0.00 94 1021.5
20180219033155 4 5 0.0 0.0 0.00 0.03 0.00 94 1021.8
20180219032147 5 5 0.0 0.0 0.00 0.03 0.00 94 1021.9
20180219031141 5 5 0.0 0.0 0.00 0.03 0.00 94 1022.1
20180219030131 5 5 0.0 0.0 0.00 0.03 0.00 93 1022.2
20180219025123 5 5 0.0 0.0 0.00 0.03 0.00 94 1022.2
20180219024115 5 5 0.0 0.0 0.00 0.03 0.00 94 1022.3
20180219023108 5 5 0.0 0.0 0.00 0.03 0.00 93 1022.3
20180219022100 5 5 0.0 0.0 0.00 0.03 0.00 93 1022.5
20180219021052 5 5 0.0 0.0 0.00 0.03 0.00 93 1022.4
20180219020046 5 5 0.0 0.0 0.00 0.03 0.00 93 1022.3
20180219015036 5 5 0.0 0.0 0.00 0.03 0.00 93 1022.3
20180219014026 5 5 0.0 0.0 0.00 0.03 0.00 93 1022.4
20180219013020 5 5 0.0 0.0 0.00 0.03 0.00 93 1022.6
20180219012012 5 22 0.0 0.0 0.00 0.03 0.00 93 1022.6
20180219010945 5 22 0.0 0.0 0.00 0.03 0.00 93 1022.7
20180219005944 5 22 0.0 0.0 0.00 0.03 0.00 93 1022.7
20180219004946 5 22 0.0 0.0 0.00 0.03 0.00 93 1022.9
20180219003938 5 22 0.0 1.6 0.00 0.03 0.00 92 1022.9
20180219002931 5 22 0.0 0.0 0.00 0.03 0.00 93 1023.0
20180219001928 5 22 0.0 0.0 0.00 0.03 0.00 92 1023.0
20180219000928 5 22 0.0 3.2 0.00 0.03 0.00 93 1022.8
20180218235930 5 22 0.0 3.2 0.00 0.03 0.03 92 1022.9
20180218234917 5 18 0.0 4.8 0.00 0.03 0.03 92 1023.0
20180218233920 5 77 0.0 3.2 0.00 0.03 0.03 91 1023.1
20180218232911 5 77 0.0 3.2 0.00 0.03 0.03 92 1022.9
20180218231918 5 77 0.0 4.8 0.00 0.03 0.03 91 1022.9
20180218230900 6 220 0.0 0.0 0.00 0.03 0.03 91 1022.9
20180218225857 6 220 0.0 0.0 0.00 0.03 0.03 91 1023.0
20180218224829 6 220 0.0 0.0 0.00 0.03 0.03 91 1022.9
20180218223821 6 220 0.0 0.0 0.00 0.03 0.03 90 1022.9
20180218222815 6 220 0.0 0.0 0.00 0.03 0.03 90 1022.9
20180218221805 6 220 0.0 0.0 0.00 0.03 0.03 89 1022.8
20180218220805 6 220 0.0 0.0 0.00 0.03 0.03 89 1022.8
20180218215806 6 220 0.0 0.0 0.00 0.03 0.03 89 1022.8
20180218214759 6 220 0.0 0.0 0.00 0.03 0.03 88 1022.8
20180218213756 7 220 0.0 0.0 0.00 0.03 0.03 88 1022.9
20180218212734 7 220 0.0 0.0 0.00 0.03 0.03 88 1023.0
20180218211733 7 220 0.0 0.0 0.00 0.03 0.03 87 1022.9
20180218210725 7 220 0.0 0.0 0.00 0.03 0.03 87 1022.8
20180218205719 7 220 1.6 4.8 0.00 0.03 0.03 86 1022.7
20180218204711 7 218 0.0 6.4 0.00 0.03 0.03 86 1022.7
20180218203653 8 259 0.0 0.0 0.00 0.03 0.03 85 1022.6
20180218202655 8 259 0.0 0.0 0.00 0.03 0.03 85 1022.8
20180218201645 8 259 0.0 0.0 0.00 0.03 0.03 85 1022.7
20180218200647 8 259 0.0 0.0 0.00 0.03 0.03 84 1022.7
20180218195639 8 259 1.6 3.2 0.00 0.03 0.03 83 1022.7
20180218194637 9 259 3.2 4.8 0.00 0.03 0.03 82 1022.8
20180218193633 9 259 3.2 4.8 0.00 0.03 0.03 82 1022.8
20180218192624 9 259 3.2 6.4 0.00 0.03 0.03 81 1022.8
20180218191614 9 259 3.2 4.8 0.00 0.03 0.03 80 1022.8
20180218190609 10 259 1.6 3.2 0.00 0.03 0.03 77 1022.8
20180218185608 10 259 1.6 3.2 0.00 0.03 0.03 75 1022.8
20180218184606 11 259 3.2 4.8 0.00 0.03 0.03 72 1022.6
20180218183607 12 258 3.2 6.4 0.00 0.03 0.03 70 1022.7
20180218182607 12 229 3.2 6.4 0.00 0.03 0.03 68 1022.6
20180218181608 13 342 3.2 8.0 0.00 0.03 0.03 65 1022.4
20180218180601 13 355 4.8 11.3 0.00 0.03 0.03 63 1022.4
20180218175558 13 341 11.3 20.9 0.00 0.03 0.03 61 1022.3
20180218174558 14 309 8.0 17.7 0.00 0.03 0.03 58 1022.3
20180218173556 14 311 11.3 19.3 0.00 0.03 0.03 56 1022.2
20180218172554 15 327 11.3 17.7 0.00 0.03 0.03 53 1022.1
20180218171553 16 305 8.0 17.7 0.00 0.03 0.03 50 1022.1
20180218170550 16 347 8.0 16.1 0.00 0.03 0.03 40 1022.1
20180218165548 16 350 11.3 17.7 0.00 0.03 0.03 40 1022.0
20180218164547 17 347 8.0 16.1 0.00 0.03 0.03 40 1022.1
20180218163542 17 9 8.0 16.1 0.00 0.03 0.03 40 1022.1
20180218162540 17 355 11.3 20.9 0.00 0.03 0.03 40 1022.1
20180218161547 17 9 8.0 16.1 0.00 0.03 0.03 40 1022.2
20180218160539 17 355 9.7 17.7 0.00 0.03 0.03 41 1022.3
20180218155539 17 5 8.0 19.3 0.00 0.03 0.03 40 1022.3
20180218154538 17 355 9.7 17.7 0.00 0.03 0.03 41 1022.4
20180218153538 17 344 11.3 22.5 0.00 0.03 0.03 41 1022.5
20180218152536 17 355 9.7 19.3 0.00 0.03 0.03 41 1022.5
20180218151535 17 5 9.7 17.7 0.00 0.03 0.03 39 1022.5
20180218150543 16 0 12.9 19.3 0.00 0.03 0.03 41 1022.5
20180218145534 16 355 12.9 19.3 0.00 0.03 0.03 42 1022.7
20180218144533 16 350 16.1 22.5 0.00 0.03 0.03 42 1022.7
20180218143532 17 22 12.9 22.5 0.00 0.03 0.03 43 1022.8
20180218142531 16 5 14.5 24.1 0.00 0.03 0.03 44 1022.9
20180218141532 16 23 16.1 24.1 0.00 0.03 0.03 43 1023.0
20180218140532 16 5 14.5 24.1 0.00 0.03 0.03 43 1023.1
20180218135532 16 5 14.5 30.6 0.00 0.03 0.03 43 1023.3
20180218134533 16 333 16.1 24.1 0.00 0.03 0.03 44 1023.3
20180218132530 16 11 17.7 30.6 0.00 0.03 0.03 45 1023.6
20180218131533 16 5 14.5 24.1 0.00 0.03 0.03 47 1023.7
20180218130526 16 5 14.5 22.5 0.00 0.03 0.03 46 1023.8
20180218125527 16 36 9.7 19.3 0.00 0.03 0.03 49 1023.8
20180218124524 16 26 8.0 17.7 0.00 0.03 0.03 49 1024.1
20180218123524 16 350 8.0 14.5 0.00 0.03 0.03 52 1024.3
20180218122518 15 5 12.9 20.9 0.00 0.03 0.03 53 1024.6
20180218121516 15 10 11.3 19.3 0.00 0.03 0.03 57 1024.8
20180218120514 15 355 12.9 24.1 0.00 0.03 0.03 51 1024.9
20180218115514 15 30 9.7 19.3 0.00 0.03 0.03 58 1025.0
20180218114510 14 328 9.7 19.3 0.00 0.03 0.03 61 1025.1
20180218113510 13 355 9.7 17.7 0.00 0.03 0.03 61 1025.1
20180218112508 13 333 8.0 17.7 0.00 0.03 0.03 63 1025.2
20180218111509 13 30 11.3 20.9 0.00 0.03 0.03 65 1025.2
20180218110507 12 0 11.3 19.3 0.00 0.03 0.03 64 1025.3
20180218105508 12 26 12.9 20.9 0.00 0.03 0.03 66 1025.4
20180218104509 12 344 9.7 19.3 0.00 0.03 0.03 71 1025.5
20180218103508 11 327 11.3 16.1 0.00 0.03 0.03 72 1025.6
20180218102507 11 13 11.3 17.7 0.00 0.03 0.03 76 1025.7
20180218101509 10 347 11.3 16.1 0.00 0.03 0.03 79 1025.8
20180218100505 10 355 8.0 14.5 0.00 0.03 0.03 85 1025.8
20180218095503 9 348 4.8 9.7 0.00 0.03 0.03 92 1025.8
20180218094501 8 339 3.2 6.4 0.00 0.03 0.03 94 1025.8
20180218093504 8 315 0.0 4.8 0.00 0.03 0.03 95 1025.9
20180218092455 7 307 0.0 1.6 0.00 0.03 0.03 96 1025.9
20180218091447 6 306 0.0 0.0 0.00 0.03 0.03 96 1025.8
20180218090439 6 306 0.0 0.0 0.00 0.03 0.03 96 1025.8
20180218085433 5 306 0.0 0.0 0.00 0.03 0.03 95 1025.8
20180218084429 4 306 0.0 0.0 0.00 0.03 0.03 95 1025.8
20180218083427 3 306 0.0 0.0 0.00 0.03 0.03 96 1025.7
20180218082423 3 306 0.0 0.0 0.00 0.03 0.03 95 1025.7
20180218081417 2 306 0.0 0.0 0.00 0.03 0.03 96 1025.7
20180218080411 2 306 0.0 0.0 0.00 0.03 0.03 96 1025.6
20180218075343 1 306 0.0 0.0 0.00 0.03 0.03 96 1025.5
20180218074345 1 306 0.0 0.0 0.00 0.03 0.03 95 1025.4
20180218073345 1 306 0.0 0.0 0.00 0.03 0.03 95 1025.3
20180218072338 1 306 0.0 0.0 0.00 0.03 0.03 95 1025.2
20180218071329 1 306 0.0 0.0 0.00 0.03 0.03 95 1025.1
20180218070322 1 306 0.0 0.0 0.00 0.03 0.03 95 1025.1
20180218065314 1 306 0.0 0.0 0.00 0.03 0.03 95 1025.0
20180218064307 1 306 0.0 0.0 0.00 0.03 0.03 95 1025.0
20180218063259 1 306 0.0 0.0 0.00 0.03 0.03 95 1025.0
20180218062248 1 306 0.0 0.0 0.00 0.05 0.03 95 1025.0
20180218061239 1 306 0.0 0.0 0.00 0.05 0.03 95 1025.0
20180218060227 1 306 0.0 0.0 0.00 0.08 0.03 95 1025.1
20180218055227 1 306 0.0 0.0 0.00 0.10 0.03 95 1025.1
20180218054219 1 306 0.0 0.0 0.00 0.15 0.03 95 1025.2
20180218053209 1 306 0.0 0.0 0.03 0.15 0.03 95 1025.1
20180218052208 1 306 0.0 0.0 0.03 0.15 0.03 95 1025.1
20180218051154 1 306 0.0 0.0 0.03 0.15 0.03 95 1025.1
20180218050137 1 306 0.0 0.0 0.03 0.18 0.03 94 1025.1
20180218045129 2 306 0.0 0.0 0.03 0.20 0.03 95 1025.2
20180218044130 2 286 0.0 0.0 0.00 0.20 0.03 95 1025.1
20180218043129 2 286 0.0 0.0 0.00 0.20 0.00 94 1025.1